Location: Unspecified
(0.0000°N, 0.0000°E)
Time: 18:12:55
(UTC+00:00)

STARLINK 1027 - Pass Details

Date: 16 January 2020
Orbit: 401 x 403 km, 53.0° (Epoch: 18 January)

Event Time Altitude Azimuth Distance (km) Brightness Sun altitude
Rises 05:35:23 0° 205° (SSW) 2,308 6.8 -8.0°
Reaches altitude 10° 05:37:30 10° 198° (SSW) 1,447 5.8 -7.5°
Maximum altitude 05:40:37 44° 124° (SE) 560 4.3 -6.7°
Drops below altitude 10° 05:43:39 10° 50° (NE) 1,415 6.1 -6.0°
Sets 05:45:50 0° 44° (NE) 2,295 7.1 -5.5°
